FW2343 Weather Reports


Display with metric or nautical units.
time (UTC)temp
F
wind
direction
speed
MPH
gust
MPH
rain 1hr
in
rain 24hr
in
rain mn
in
humidity
%
barometer
mb
20260508080718 61 29 8.0 17.0 0.00 0.00 0.00 77 1013.0
20260508080214 61 22 8.0 12.0 0.00 0.00 0.00 77 1012.9
20260508074711 61 334 7.0 13.0 0.00 0.00 0.00 79 1013.0
20260508074217 60 67 6.0 13.0 0.00 0.00 0.00 80 1013.0
20260508073714 61 61 8.0 13.0 0.00 0.00 0.00 79 1013.0
20260508073219 60 57 7.0 13.0 0.00 0.00 0.00 80 1013.0
20260508072717 60 5 7.0 11.0 0.00 0.00 0.00 81 1012.9
20260508072205 60 28 6.0 11.0 0.00 0.00 0.00 81 1013.0
20260508071705 60 68 3.0 5.0 0.00 0.00 0.00 82 1012.9
20260508071216 60 98 1.0 5.0 0.00 0.00 0.00 83 1012.9
20260508070205 57 0 0.0 0.0 0.00 0.00 0.00 87 1013.0
20260508065716 56 0 0.0 0.0 0.00 0.00 0.00 87 1013.0
20260508065215 55 0 0.0 0.0 0.00 0.00 0.00 87 1013.2
20260508064717 54 0 0.0 1.0 0.00 0.00 0.00 88 1013.0
20260508063718 53 199 0.0 1.0 0.00 0.00 0.00 89 1013.0
20260508063207 52 0 0.0 2.0 0.00 0.00 0.00 91 1013.0
20260508062712 51 118 0.0 2.0 0.00 0.00 0.00 91 1013.0
20260508062217 51 174 0.0 3.0 0.00 0.00 0.00 91 1013.1
20260508061708 50 181 1.0 3.0 0.00 0.00 0.00 92 1013.1
20260508060716 49 161 1.0 3.0 0.00 0.00 0.00 92 1013.0
20260508060209 49 160 1.0 3.0 0.00 0.00 0.00 93 1013.0
20260508054708 48 0 0.0 0.0 0.00 0.00 0.00 93 1012.8
20260508054213 48 0 0.0 0.0 0.00 0.00 0.00 93 1012.8
20260508053715 47 0 0.0 0.0 0.00 0.00 0.00 93 1012.9
20260508053206 47 0 0.0 0.0 0.00 0.00 0.00 93 1012.7
20260508052708 47 0 0.0 0.0 0.00 0.00 0.00 93 1012.8
20260508052213 47 0 0.0 0.0 0.00 0.00 0.00 93 1012.7
20260508051709 47 0 0.0 0.0 0.00 0.00 0.00 93 1012.7
20260508051219 47 0 0.0 0.0 0.00 0.00 0.00 93 1012.6
20260508050720 47 0 0.0 0.0 0.00 0.00 0.00 93 1012.5
20260508050217 47 0 0.0 0.0 0.00 0.00 0.00 93 1012.3
20260508045719 48 0 0.0 0.0 0.00 0.00 0.00 93 1012.3
20260508044707 47 0 0.0 0.0 0.00 0.00 0.00 93 1012.3
20260508044230 48 0 0.0 0.0 0.00 0.00 0.00 93 1012.2
20260508043706 48 0 0.0 0.0 0.00 0.00 0.00 93 1012.1
20260508043209 48 0 0.0 0.0 0.00 0.00 0.00 93 1012.1
20260508042714 47 0 0.0 0.0 0.00 0.00 0.00 93 1012.0
20260508042212 48 0 0.0 0.0 0.00 0.00 0.00 93 1012.1
20260508041209 47 0 0.0 0.0 0.00 0.00 0.00 93 1012.1
20260508040709 47 0 0.0 0.0 0.00 0.00 0.00 92 1012.1
20260508035715 48 0 0.0 0.0 0.00 0.00 0.00 92 1012.0
20260508035213 48 0 0.0 0.0 0.00 0.00 0.00 92 1012.0
20260508034707 48 0 0.0 0.0 0.00 0.00 0.00 92 1012.1
20260508034213 48 0 0.0 0.0 0.00 0.00 0.00 92 1011.9
20260508033704 48 0 0.0 0.0 0.00 0.00 0.00 92 1012.0
20260508033212 48 0 0.0 0.0 0.00 0.00 0.00 92 1012.0
20260508032715 48 0 0.0 0.0 0.00 0.00 0.00 92 1011.9
20260508032209 49 0 0.0 0.0 0.00 0.00 0.00 92 1011.9
20260508031218 49 0 0.0 0.0 0.00 0.00 0.00 92 1011.7
20260508030708 49 0 0.0 0.0 0.00 0.00 0.00 92 1011.9
20260508030211 49 0 0.0 0.0 0.00 0.00 0.00 92 1012.0
20260508025708 49 0 0.0 0.0 0.00 0.00 0.00 92 1011.7
20260508025205 49 0 0.0 0.0 0.00 0.00 0.00 92 1011.6
20260508024709 49 0 0.0 0.0 0.00 0.00 0.00 92 1011.7
20260508023211 49 0 0.0 0.0 0.00 0.00 0.00 92 1011.7
20260508021712 50 0 0.0 0.0 0.00 0.00 0.00 91 1011.7
20260508021219 50 0 0.0 0.0 0.00 0.00 0.00 91 1011.7
20260508020708 50 0 0.0 0.0 0.00 0.00 0.00 91 1011.7
20260508020217 50 0 0.0 0.0 0.00 0.00 0.00 91 1011.7
20260508015711 50 0 0.0 0.0 0.00 0.00 0.00 91 1011.7
20260508015209 50 0 0.0 0.0 0.00 0.00 0.00 90 1011.9
20260508014719 50 0 0.0 0.0 0.00 0.00 0.00 91 1011.7
20260508014212 51 0 0.0 0.0 0.00 0.00 0.00 90 1011.7
20260508013714 51 0 0.0 0.0 0.00 0.00 0.00 90 1011.7
20260508013214 51 0 0.0 0.0 0.00 0.00 0.00 91 1011.7
20260508012711 51 0 0.0 0.0 0.00 0.00 0.00 90 1011.7
20260508012207 51 0 0.0 0.0 0.00 0.00 0.00 91 1011.9
20260508011218 51 0 0.0 0.0 0.00 0.00 0.00 91 1011.7
20260508010207 51 0 0.0 0.0 0.00 0.00 0.00 90 1011.9
20260508005707 51 0 0.0 0.0 0.00 0.00 0.00 90 1012.0
20260508005208 51 0 0.0 0.0 0.00 0.00 0.00 90 1011.9
20260508004729 51 0 0.0 0.0 0.00 0.00 0.00 90 1012.0
20260508004205 51 0 0.0 0.0 0.00 0.00 0.00 90 1012.0
20260508003716 51 0 0.0 0.0 0.00 0.00 0.00 90 1012.0
20260508003216 51 0 0.0 0.0 0.00 0.00 0.00 90 1012.0
20260508002714 51 0 0.0 0.0 0.00 0.00 0.00 90 1012.1
20260508002210 51 0 0.0 0.0 0.00 0.00 0.00 89 1012.2
20260508001733 52 0 0.0 0.0 0.00 0.00 0.00 89 1012.2
20260508001208 52 0 0.0 0.0 0.00 0.00 0.00 89 1012.1
20260508000719 52 0 0.0 0.0 0.00 0.00 0.00 89 1012.2
20260508000207 52 0 0.0 0.0 0.00 0.00 0.00 89 1012.3
20260507235705 52 0 0.0 0.0 0.00 0.00 0.00 88 1012.4
20260507234705 52 0 0.0 0.0 0.00 0.00 0.00 88 1012.3
20260507234206 52 0 0.0 0.0 0.00 0.00 0.00 88 1012.3
20260507232714 53 0 0.0 0.0 0.00 0.00 0.00 88 1012.3
20260507231705 53 0 0.0 0.0 0.00 0.00 0.00 87 1012.4
20260507231208 54 0 0.0 0.0 0.00 0.00 0.00 87 1012.5
20260507230233 54 0 0.0 0.0 0.00 0.00 0.00 86 1012.6
20260507225709 54 0 0.0 0.0 0.00 0.00 0.00 86 1012.5
20260507225205 54 0 0.0 0.0 0.00 0.00 0.00 86 1012.5
20260507224712 55 0 0.0 0.0 0.00 0.00 0.00 85 1012.6
20260507223719 55 0 0.0 0.0 0.00 0.00 0.00 85 1012.5
20260507223206 55 0 0.0 0.0 0.00 0.00 0.00 84 1012.4
20260507222215 56 0 0.0 0.0 0.00 0.00 0.00 84 1012.5
20260507221716 56 0 0.0 0.0 0.00 0.00 0.00 84 1012.5
20260507220216 57 0 0.0 0.0 0.00 0.00 0.00 83 1012.5
20260507215704 57 0 0.0 0.0 0.00 0.00 0.00 82 1012.4
20260507215215 57 0 0.0 0.0 0.00 0.00 0.00 81 1012.3
20260507214724 58 0 0.0 0.0 0.00 0.00 0.00 81 1012.4
20260507214205 58 0 0.0 0.0 0.00 0.00 0.00 81 1012.4
20260507213705 58 0 0.0 0.0 0.00 0.00 0.00 80 1012.4
20260507213217 58 0 0.0 0.0 0.00 0.00 0.00 79 1012.4
20260507212712 59 0 0.0 0.0 0.00 0.00 0.00 79 1012.4
20260507212213 59 0 0.0 0.0 0.00 0.00 0.00 79 1012.4
20260507211209 59 0 0.0 0.0 0.00 0.00 0.00 78 1012.2
20260507210714 59 0 0.0 0.0 0.00 0.00 0.00 79 1012.3
20260507210206 59 0 0.0 0.0 0.00 0.00 0.00 79 1012.3
20260507204718 60 0 0.0 0.0 0.00 0.00 0.00 78 1012.2
20260507204211 60 0 0.0 0.0 0.00 0.00 0.00 78 1012.2
20260507203705 60 0 0.0 0.0 0.00 0.00 0.00 78 1012.2
20260507203208 60 0 0.0 0.0 0.00 0.00 0.00 77 1012.2
20260507202738 60 0 0.0 0.0 0.00 0.00 0.00 77 1012.2
20260507202213 60 0 0.0 0.0 0.00 0.00 0.00 76 1012.2
20260507201708 61 0 0.0 0.0 0.00 0.00 0.00 75 1012.1
20260507201207 61 0 0.0 0.0 0.00 0.00 0.00 75 1012.0
20260507200713 61 0 0.0 0.0 0.00 0.00 0.00 73 1012.0
20260507200215 62 0 0.0 0.0 0.00 0.00 0.00 73 1011.9
20260507195708 62 0 0.0 0.0 0.00 0.00 0.00 73 1011.9
20260507195214 62 0 0.0 0.0 0.00 0.00 0.00 72 1011.7
20260507194716 63 0 0.0 0.0 0.00 0.00 0.00 71 1011.7
20260507194206 63 0 0.0 0.0 0.00 0.00 0.00 71 1011.7
20260507193719 64 0 0.0 0.0 0.00 0.00 0.00 70 1011.5
20260507193216 64 0 0.0 0.0 0.00 0.00 0.00 69 1011.5
20260507192212 65 0 0.0 0.0 0.00 0.00 0.00 67 1011.3
20260507191711 65 0 0.0 0.0 0.00 0.00 0.00 67 1011.3
20260507190707 65 0 0.0 0.0 0.00 0.00 0.00 65 1011.3
20260507190208 66 0 0.0 0.0 0.00 0.00 0.00 63 1011.3
20260507185711 66 0 0.0 0.0 0.00 0.00 0.00 63 1011.2
20260507185208 67 0 0.0 0.0 0.00 0.00 0.00 63 1011.2
20260507184707 67 0 0.0 2.0 0.00 0.00 0.00 61 1011.2
20260507184218 67 0 0.0 2.0 0.00 0.00 0.00 59 1011.2
20260507183718 68 98 0.0 4.0 0.00 0.00 0.00 58 1011.1
20260507183216 68 0 0.0 4.0 0.00 0.00 0.00 58 1011.0
20260507182706 68 168 1.0 5.0 0.00 0.00 0.00 58 1010.9
20260507182211 68 154 0.0 6.0 0.00 0.00 0.00 57 1011.0
20260507181215 69 180 2.0 7.0 0.00 0.00 0.00 56 1010.9
20260507180711 69 156 0.0 7.0 0.00 0.01 0.00 55 1010.8
20260507180206 70 182 2.0 7.0 0.00 0.01 0.00 54 1010.9
20260507175711 70 174 2.0 9.0 0.00 0.01 0.00 54 1010.8
20260507174709 70 181 3.0 7.0 0.00 0.05 0.00 54 1010.8
20260507173711 70 113 2.0 7.0 0.00 0.07 0.00 54 1010.7
20260507173206 71 168 2.0 9.0 0.00 0.07 0.00 52 1010.6
20260507172210 70 181 4.0 9.0 0.00 0.07 0.00 53 1010.7
20260507171709 70 210 3.0 9.0 0.00 0.07 0.00 53 1010.7
20260507171214 71 220 2.0 9.0 0.00 0.08 0.00 53 1010.6
20260507170225 71 288 2.0 7.0 0.00 0.08 0.00 49 1010.6
20260507165712 71 275 2.0 7.0 0.00 0.08 0.00 37 1010.7
20260507165209 71 271 3.0 6.0 0.00 0.08 0.00 37 1010.5
20260507164214 71 254 4.0 8.0 0.00 0.08 0.00 39 1010.7
20260507163715 71 298 2.0 8.0 0.00 0.08 0.00 38 1010.7
20260507163217 71 288 3.0 8.0 0.00 0.08 0.00 39 1010.6
20260507162207 72 333 3.0 7.0 0.00 0.08 0.00 40 1010.6
20260507161714 72 358 3.0 8.0 0.00 0.08 0.00 38 1010.5
20260507161216 72 291 3.0 8.0 0.00 0.08 0.00 38 1010.6
20260507160706 72 300 3.0 8.0 0.00 0.08 0.00 37 1010.6
20260507160215 73 279 2.0 5.0 0.00 0.08 0.00 37 1010.7
20260507155711 73 0 2.0 6.0 0.00 0.08 0.00 37 1010.8
20260507155206 72 292 2.0 8.0 0.00 0.08 0.00 38 1010.9
20260507154711 72 14 4.0 8.0 0.00 0.08 0.00 39 1010.8
20260507154210 71 351 5.0 8.0 0.00 0.08 0.00 39 1010.8
20260507153705 71 30 4.0 4.0 0.00 0.08 0.00 38 1010.8
20260507153205 71 113 1.0 8.0 0.00 0.08 0.00 38 1010.8
20260507152715 72 291 1.0 8.0 0.00 0.08 0.00 39 1010.8
20260507152206 72 288 3.0 7.0 0.00 0.08 0.00 38 1010.8
20260507151709 72 15 3.0 9.0 0.00 0.08 0.00 41 1011.0
20260507151209 71 343 3.0 9.0 0.00 0.08 0.00 40 1010.9
20260507150705 71 300 4.0 5.0 0.00 0.08 0.00 40 1011.0
20260507150219 71 275 2.0 5.0 0.00 0.08 0.00 37 1011.0
20260507145714 72 358 2.0 5.0 0.00 0.08 0.00 39 1011.1
20260507145208 71 310 1.0 5.0 0.00 0.08 0.00 42 1011.1
20260507144211 71 0 0.0 4.0 0.00 0.08 0.00 42 1011.1
20260507143218 71 154 1.0 9.0 0.00 0.08 0.00 44 1011.2
20260507142711 70 61 3.0 10.0 0.00 0.08 0.00 46 1011.4
20260507142209 69 47 3.0 10.0 0.00 0.08 0.00 45 1011.5
20260507141712 70 59 5.0 10.0 0.00 0.08 0.00 47 1011.5
20260507141205 70 71 2.0 8.0 0.00 0.08 0.00 46 1011.6
20260507135218 69 64 4.0 8.0 0.00 0.08 0.00 46 1012.0
20260507134716 69 78 3.0 6.0 0.00 0.08 0.00 47 1012.1
20260507134217 69 60 2.0 6.0 0.00 0.08 0.00 47 1012.2
20260507133719 69 149 0.0 8.0 0.00 0.08 0.00 48 1012.2
20260507133218 69 358 1.0 10.0 0.00 0.08 0.00 47 1012.4
20260507132207 68 330 3.0 9.0 0.00 0.08 0.00 48 1012.5
20260507130711 67 45 3.0 9.0 0.00 0.08 0.00 52 1012.6
20260507130214 67 33 2.0 9.0 0.00 0.08 0.00 52 1012.6
20260507125713 67 4 3.0 3.0 0.00 0.08 0.00 52 1012.7
20260507125216 67 340 0.0 4.0 0.00 0.08 0.00 52 1012.7
20260507124718 68 333 0.0 6.0 0.00 0.08 0.00 52 1012.7
20260507123717 67 358 1.0 6.0 0.00 0.08 0.00 53 1012.8
20260507123212 67 344 0.0 5.0 0.00 0.08 0.00 53 1012.8
20260507122713 68 334 0.0 13.0 0.00 0.08 0.00 51 1012.9
20260507122217 68 278 1.0 13.0 0.00 0.08 0.00 50 1013.0
20260507121706 68 16 3.0 6.0 0.00 0.08 0.00 50 1013.0
20260507121230 68 258 0.0 8.0 0.00 0.08 0.00 52 1013.0
20260507120713 67 261 1.0 8.0 0.00 0.08 0.00 52 1013.1
20260507120218 67 50 1.0 8.0 0.00 0.08 0.00 52 1013.2
20260507115713 67 0 0.0 6.0 0.00 0.08 0.00 53 1013.1
20260507115218 67 227 1.0 8.0 0.00 0.08 0.00 53 1013.2
20260507114706 66 282 0.0 8.0 0.00 0.08 0.00 53 1013.4
20260507113712 66 272 1.0 8.0 0.00 0.08 0.00 52 1013.4
20260507113206 65 345 2.0 7.0 0.00 0.08 0.00 56 1013.5
20260507112707 65 7 1.0 6.0 0.00 0.08 0.00 54 1013.5
20260507112208 65 305 1.0 6.0 0.00 0.08 0.00 52 1013.5
20260507111705 66 289 2.0 7.0 0.00 0.08 0.00 52 1013.5
20260507111232 66 150 0.0 8.0 0.00 0.08 0.00 52 1013.7
20260507110713 65 209 2.0 8.0 0.00 0.08 0.00 53 1013.7
20260507110205 65 232 1.0 7.0 0.00 0.08 0.00 54 1013.7
20260507105206 64 350 2.0 11.0 0.00 0.08 0.00 55 1013.9
20260507104729 64 262 1.0 11.0 0.00 0.08 0.00 53 1013.8
20260507104219 64 123 0.0 6.0 0.00 0.08 0.00 53 1013.8
20260507103213 64 279 1.0 10.0 0.00 0.08 0.00 59 1014.0
20260507102712 64 251 2.0 5.0 0.00 0.08 0.00 57 1014.0
20260507102209 64 262 1.0 7.0 0.00 0.08 0.00 57 1013.9
20260507101235 63 279 2.0 7.0 0.00 0.08 0.00 57 1014.0
20260507100707 63 281 3.0 7.0 0.00 0.08 0.00 61 1014.1
20260507100217 63 352 3.0 7.0 0.00 0.08 0.00 62 1014.1
20260507095716 63 19 3.0 7.0 0.00 0.08 0.00 67 1014.1
20260507095218 62 129 0.0 5.0 0.00 0.08 0.00 65 1014.2
20260507094717 63 125 0.0 5.0 0.00 0.08 0.00 64 1014.2
20260507093738 61 73 1.0 8.0 0.00 0.08 0.00 67 1014.3
20260507093217 61 333 1.0 8.0 0.00 0.08 0.00 66 1014.2
20260507092710 61 279 1.0 5.0 0.00 0.08 0.00 66 1014.2
20260507092210 61 0 0.0 5.0 0.00 0.08 0.00 65 1014.2
20260507090714 61 226 2.0 10.0 0.00 0.08 0.00 66 1014.3
20260507090214 60 213 2.0 0.0 0.00 0.08 0.00 70 1014.3
20260507085719 60 0 0.0 0.0 0.00 0.08 0.00 70 1014.3
20260507084717 60 0 0.0 1.0 0.00 0.08 0.00 71 1014.3
20260507083717 59 300 0.0 4.0 0.00 0.08 0.00 71 1014.3
20260507082717 59 261 0.0 4.0 0.00 0.08 0.00 74 1014.3
20260507082217 58 0 0.0 0.0 0.00 0.08 0.00 72 1014.3
20260507081705 59 0 0.0 0.0 0.00 0.08 0.00 74 1014.4
20260507081218 59 0 0.0 0.0 0.00 0.08 0.00 74 1014.4